Simultaneous Nadir Overpasses (SNOs) Predictions

Prediction of SNOs between FY3D and TERRA Satellite Orbit:

Table of predicted SNOs for the next 14.0 days since TLE Epoch: 11/12/2022
Index Date (FY3D) Time (FY3D) Lat,Lon (FY3D) SZA (FY3D ) Date (TERRA) Time (TERRA) Lat,Lon (TERRA) SZA (TERRA ) Distance(km) Time Diff (sec)
1 11/12/2022 18:31:59 72.37, -98.23 90.14 11/12/2022 18:32:32 72.37, -98.22 90.15 0.83 33
2 11/12/2022 19:22:42 -72.30, 69.23 89.92 11/12/2022 19:21:58 -72.30, 69.30 89.92 2.61 44
3 11/15/2022 06:36:15 -72.40, -99.33 89.18 11/15/2022 06:37:23 -72.39, -99.42 89.19 3.23 68
4 11/15/2022 07:27:01 72.33, 68.11 90.77 11/15/2022 07:26:45 72.34, 68.15 90.77 1.51 16
5 11/15/2022 08:17:30 -71.54,-123.07 89.98 11/15/2022 08:16:23 -71.62,-125.44 89.96 83.44 67
6 11/17/2022 19:31:16 -72.37, 66.99 88.58 11/17/2022 19:31:34 -72.39, 67.01 88.56 1.75 18
7 11/17/2022 20:22:02 72.30,-125.57 91.37 11/17/2022 20:20:57 72.28,-125.53 91.34 3.13 65
8 11/20/2022 07:35:35 72.42, 65.84 92.06 11/20/2022 07:36:20 72.42, 65.86 92.06 0.58 45
9 11/20/2022 08:26:18 -72.35,-126.69 88.01 11/20/2022 08:25:46 -72.36,-126.61 88.00 3.12 32
10 11/22/2022 19:39:56 -72.72, 64.19 87.11 11/22/2022 19:41:07 -72.59, 64.94 87.23 29.06 71
11 11/22/2022 20:30:36 72.35,-127.75 92.55 11/22/2022 20:30:32 72.37,-127.80 92.56 2.33 4
12 11/22/2022 21:21:14 -72.03, 40.21 87.77 11/22/2022 21:20:02 -72.09, 39.36 87.72 30.12 72
13 11/25/2022 08:34:52 -72.41,-128.90 86.90 11/25/2022 08:35:21 -72.41,-128.95 86.90 1.73 29
14 11/25/2022 09:25:38 72.35, 38.53 93.05 11/25/2022 09:24:43 72.35, 38.60 93.05 2.39 55



Historial Predications of SNOs between FY3D and TERRA
